Torna al catalogo

COSMOS 1275 DEB

AttivoPO
NORAD 12725·DEBRIS·🇷🇺 Russia

Lanciato Jun 4, 1981 da Plesetsk Cosmodrome

Loading…

Prossimi Passaggi (prossime 24 ore)

TLE

AggiornatoSource: Space-Track

Epoca: Sep 14, 2026, 09:30 UTC

1 12725U 81053BS  26257.39606635  .00000970  00000-0  80505-3 0  9991
2 12725  83.1337 268.8027 0092754 112.3479 315.3652 13.85769015253922

Traccia COSMOS 1275 DEB in tempo reale con AllMySat

Download on the App Store